Home   Weather   Broken Hill   Past weeks

Flag for Australia Past Weather in Broken Hill, New South Wales, Australia — Yesterday and Last 2 Weeks

Now
61 °F

Cool.


Feels Like: 61 °F
Forecast: 48 / 57 °F
Wind: 6 mph from West

Location: Yunta

Current Time: Apr 25, 2017 at 6:38:39 pm

Latest Report: Apr 25, 2017 at 6:00 pm


Visibility: N/A

Pressure: 29.91 "Hg

Humidity: 62%

Dew Point: 48 °F

Location of Broken HillLocation

Past Weather in Broken Hill — Graph

°F

Broken Hill Temperature Yesterday

Maximum temperature yesterday: 69 °F (at 12:00 pm)
Minimum temperature yesterday: 57 °F (at 5:30 am)
Average temperature yesterday: 63 °F

High & Low Weather Summary for the Past Weeks

 TemperatureHumidityPressure
High85 °F (Apr 19, 1:30 pm)94% (Apr 24, 7:30 am)30.27 "Hg (Apr 24, 7:30 am)
Low40 °F (Apr 13, 5:30 am)15% (Apr 15, 4:30 pm)29.88 "Hg (Apr 25, 3:00 pm)
Average64 °F58%30.12 "Hg
* Reported Apr 10 4:30 pm — Apr 25 4:30 pm, Broken Hill, Weather by CustomWeather, © 2017

Note: Actual official high and low records may vary slightly from our data, if they occured in-between our weather recording intervals... More about our weather records

Advertising

Broken Hill Weather History for the Previous 24 Hours

Scroll right to see more
 ConditionsComfort  
Time TempWeatherWind HumidityBarometerVisibility
4:30 pm
Tue, Apr 25
65 °FMild.12 mph53%29.90 "HgN/A
3:00 pm67 °FMild.16 mph47%29.88 "HgN/A
1:30 pm69 °FMild.15 mph47%29.89 "HgN/A
12:00 pm67 °FMild.14 mph55%29.93 "HgN/A
11:30 am66 °FMild.14 mph61%29.94 "HgN/A
10:30 am63 °FMild.12 mph68%29.95 "HgN/A
9:00 am60 °FCool.10 mph75%29.96 "HgN/A
7:30 am57 °FCool.7 mph88%29.94 "HgN/A
5:30 am57 °FCool.7 mph90%29.92 "HgN/A
4:30 am58 °FCool.6 mph89%29.90 "HgN/A
3:00 am60 °FCool.6 mph86%29.91 "HgN/A
1:30 am61 °FCool.5 mph87%29.91 "HgN/A
11:30 pm
Mon, Apr 24
62 °FCool.8 mph87%29.91 "HgN/A
10:30 pm62 °FCool.9 mph89%29.94 "HgN/A
9:00 pm62 °FMild.7 mph90%29.94 "HgN/A
8:30 pm63 °FMild.9 mph90%29.95 "HgN/A
7:30 pm63 °FMild.9 mph88%29.95 "HgN/A
Weather by CustomWeather, © 2017

See weather overviewHow to use our weather pages